owner,sensor,date,latitude,longitude,vertical_datum,direction_of_sea_water_velocity,sea_water_speed,upward_sea_water_velocity,qcFlag 
TABS,ioos:station:wmo:42048:1,2016-08-01T00:00:00Z,27.9396,-96.8429,2.0,68.70601474,5.452228902,-99999.0,'11133222,11111222,99999999' 
TABS,ioos:station:wmo:42048:1,2016-08-01T00:30:00Z,27.9396,-96.8429,2.0,65.01362522,4.545415273,-99999.0,'11133222,11111222,99999999' 
TABS,ioos:station:wmo:42048:1,2016-08-01T01:00:00Z,27.9396,-96.8429,2.0,53.13018857,4.8,-99999.0,'11133222,11111222,99999999' 
TABS,ioos:station:wmo:42048:1,2016-08-01T01:30:00Z,27.9396,-96.8429,2.0,44.69453135,5.303376283,-99999.0,'11133222,11111222,99999999' 
TABS,ioos:station:wmo:42048:1,2016-08-01T02:00:00Z,27.9396,-96.8429,2.0,62.76491699,4.588725313,-99999.0,'11133222,11111222,99999999' 
TABS,ioos:station:wmo:42048:1,2016-08-01T02:30:00Z,27.9396,-96.8429,2.0,24.87731817,4.706729225,-99999.0,'11133222,11111222,99999999' 
TABS,ioos:station:wmo:42048:1,2016-08-01T03:00:00Z,27.9396,-96.8429,2.0,28.31292936,3.225910724,-99999.0,'11133222,11111222,99999999' 
TABS,ioos:station:wmo:42048:1,2016-08-01T03:30:00Z,27.9396,-96.8429,2.0,32.03247514,4.506051487,-99999.0,'11133222,11111222,99999999' 
TABS,ioos:station:wmo:42048:1,2016-08-01T04:00:00Z,27.9396,-96.8429,2.0,38.13012899,5.911429607,-99999.0,'11133222,11111222,99999999' 
TABS,ioos:station:wmo:42048:1,2016-08-01T04:30:00Z,27.9396,-96.8429,2.0,41.48557467,4.498588668,-99999.0,'11133222,11111222,99999999' 
TABS,ioos:station:wmo:42048:1,2016-08-01T05:00:00Z,27.9396,-96.8429,2.0,24.41929403,5.732826528,-99999.0,'11133222,11111222,99999999' 
TABS,ioos:station:wmo:42048:1,2016-08-01T05:30:00Z,27.9396,-96.8429,2.0,31.04407316,6.127650447,-99999.0,'11133222,11111222,99999999' 
TABS,ioos:station:wmo:42048:1,2016-08-01T06:00:00Z,27.9396,-96.8429,2.0,34.50051936,7.256204242,-99999.0,'11133222,11111222,99999999' 
TABS,ioos:station:wmo:42048:1,2016-08-01T06:30:00Z,27.9396,-96.8429,2.0,43.91918357,5.247666148,-99999.0,'11133222,11111222,99999999' 
TABS,ioos:station:wmo:42048:1,2016-08-01T07:00:00Z,27.9396,-96.8429,2.0,24.63522697,9.428138735,-99999.0,'11133222,11111222,99999999' 
TABS,ioos:station:wmo:42048:1,2016-08-01T07:30:00Z,27.9396,-96.8429,2.0,45.18633094,6.526630065,-99999.0,'11133222,11111222,99999999' 
TABS,ioos:station:wmo:42048:1,2016-08-01T08:00:00Z,27.9396,-96.8429,2.0,56.54407445,9.504867174,-99999.0,'11133222,11111222,99999999' 
TABS,ioos:station:wmo:42048:1,2016-08-01T08:30:00Z,27.9396,-96.8429,2.0,47.17985612,8.180073349,-99999.0,'11133222,11111222,99999999' 
TABS,ioos:station:wmo:42048:1,2016-08-01T09:00:00Z,27.9396,-96.8429,2.0,52.41060407,6.688527491,-99999.0,'11133222,11111222,99999999' 
TABS,ioos:station:wmo:42048:1,2016-08-01T09:30:00Z,27.9396,-96.8429,2.0,65.56753864,8.292611169,-99999.0,'11133222,11111222,99999999' 
TABS,ioos:station:wmo:42048:1,2016-08-01T10:00:00Z,27.9396,-96.8429,2.0,45.92266069,8.783404807,-99999.0,'11133222,11111222,99999999' 
TABS,ioos:station:wmo:42048:1,2016-08-01T10:30:00Z,27.9396,-96.8429,2.0,68.5953528,8.850451966,-99999.0,'11133222,11111222,99999999' 
TABS,ioos:station:wmo:42048:1,2016-08-01T11:00:00Z,27.9396,-96.8429,2.0,47.24584254,8.661639568,-99999.0,'11133222,11111222,99999999' 
TABS,ioos:station:wmo:42048:1,2016-08-01T11:30:00Z,27.9396,-96.8429,2.0,39.75652575,10.44525251,-99999.0,'11111222,11111222,99999999' 
TABS,ioos:station:wmo:42048:1,2016-08-01T12:00:00Z,27.9396,-96.8429,2.0,53.0600593,8.17000612,-99999.0,'11133222,11111222,99999999' 
TABS,ioos:station:wmo:42048:1,2016-08-01T12:30:00Z,27.9396,-96.8429,2.0,53.52885959,10.06024354,-99999.0,'11111222,11111222,99999999' 
TABS,ioos:station:wmo:42048:1,2016-08-01T13:00:00Z,27.9396,-96.8429,2.0,49.70613937,10.51477056,-99999.0,'11111222,11111222,99999999' 
TABS,ioos:station:wmo:42048:1,2016-08-01T13:30:00Z,27.9396,-96.8429,2.0,54.25226666,9.191762617,-99999.0,'11133222,11111222,99999999' 
TABS,ioos:station:wmo:42048:1,2016-08-01T14:00:00Z,27.9396,-96.8429,2.0,61.31391951,9.06228448,-99999.0,'11133222,11111222,99999999' 
TABS,ioos:station:wmo:42048:1,2016-08-01T14:30:00Z,27.9396,-96.8429,2.0,50.55849993,9.271337552,-99999.0,'11133222,11111222,99999999' 
TABS,ioos:station:wmo:42048:1,2016-08-01T15:00:00Z,27.9396,-96.8429,2.0,57.07052825,8.14926377,-99999.0,'11133222,11111222,99999999' 
TABS,ioos:station:wmo:42048:1,2016-08-01T15:30:00Z,27.9396,-96.8429,2.0,48.49589334,10.66887998,-99999.0,'11111222,11111222,99999999' 
TABS,ioos:station:wmo:42048:1,2016-08-01T16:00:00Z,27.9396,-96.8429,2.0,42.10308205,9.933403244,-99999.0,'11133222,11111222,99999999' 
TABS,ioos:station:wmo:42048:1,2016-08-01T16:30:00Z,27.9396,-96.8429,2.0,55.58807812,11.00612557,-99999.0,'11111222,11111222,99999999' 
TABS,ioos:station:wmo:42048:1,2016-08-01T17:00:00Z,27.9396,-96.8429,2.0,47.01086978,11.68860129,-99999.0,'11111222,11111222,99999999' 
TABS,ioos:station:wmo:42048:1,2016-08-01T17:30:00Z,27.9396,-96.8429,2.0,51.14070703,10.31221606,-99999.0,'11111222,11111222,99999999' 
TABS,ioos:station:wmo:42048:1,2016-08-01T18:00:00Z,27.9396,-96.8429,2.0,50.41496358,11.31470282,-99999.0,'11111222,11111222,99999999' 
TABS,ioos:station:wmo:42048:1,2016-08-01T18:30:00Z,27.9396,-96.8429,2.0,60.81984876,11.07559931,-99999.0,'11111222,11111222,99999999' 
TABS,ioos:station:wmo:42048:1,2016-08-01T19:00:00Z,27.9396,-96.8429,2.0,61.50008316,9.933805917,-99999.0,'11133222,11111222,99999999' 
TABS,ioos:station:wmo:42048:1,2016-08-01T19:30:00Z,27.9396,-96.8429,2.0,51.94075952,11.17640819,-99999.0,'11111222,11111222,99999999' 
TABS,ioos:station:wmo:42048:1,2016-08-01T20:00:00Z,27.9396,-96.8429,2.0,49.05217093,8.605788749,-99999.0,'11133222,11111222,99999999' 
TABS,ioos:station:wmo:42048:1,2016-08-01T20:30:00Z,27.9396,-96.8429,2.0,53.35581633,8.126063007,-99999.0,'11133222,11111222,99999999' 
TABS,ioos:station:wmo:42048:1,2016-08-01T21:00:00Z,27.9396,-96.8429,2.0,49.83968149,6.202225407,-99999.0,'11133222,11111222,99999999' 
TABS,ioos:station:wmo:42048:1,2016-08-01T21:30:00Z,27.9396,-96.8429,2.0,39.65812333,5.468473279,-99999.0,'11133222,11111222,99999999' 
TABS,ioos:station:wmo:42048:1,2016-08-01T22:00:00Z,27.9396,-96.8429,2.0,29.21362757,7.355576116,-99999.0,'11133222,11111222,99999999' 
TABS,ioos:station:wmo:42048:1,2016-08-01T22:30:00Z,27.9396,-96.8429,2.0,23.91923213,8.04052859,-99999.0,'11133222,11111222,99999999' 
TABS,ioos:station:wmo:42048:1,2016-08-01T23:00:00Z,27.9396,-96.8429,2.0,23.21963467,7.203471385,-99999.0,'11133222,11111222,99999999' 
TABS,ioos:station:wmo:42048:1,2016-08-01T23:30:00Z,27.9396,-96.8429,2.0,25.19136672,6.155428498,-99999.0,'11133222,11111222,99999999' 
TABS,ioos:station:wmo:42048:1,2016-08-02T00:00:00Z,27.9396,-96.8429,2.0,358.4786527,6.402257414,-99999.0,'11133222,11111222,99999999' 
TABS,ioos:station:wmo:42048:1,2016-08-02T00:30:00Z,27.9396,-96.8429,2.0,19.47674041,4.348850423,-99999.0,'11133222,11111222,99999999' 
TABS,ioos:station:wmo:42048:1,2016-08-02T01:00:00Z,27.9396,-96.8429,2.0,16.79347501,4.084176784,-99999.0,'11133222,11111222,99999999' 
TABS,ioos:station:wmo:42048:1,2016-08-02T01:30:00Z,27.9396,-96.8429,2.0,15.0948019,4.070442236,-99999.0,'11133222,11111222,99999999' 
TABS,ioos:station:wmo:42048:1,2016-08-02T02:00:00Z,27.9396,-96.8429,2.0,357.8323252,3.17227048,-99999.0,'11133222,11111222,99999999' 
TABS,ioos:station:wmo:42048:1,2016-08-02T02:30:00Z,27.9396,-96.8429,2.0,354.4918778,4.792128963,-99999.0,'11133222,11111222,99999999' 
TABS,ioos:station:wmo:42048:1,2016-08-02T03:00:00Z,27.9396,-96.8429,2.0,16.08780042,3.32001506,-99999.0,'11133222,11111222,99999999' 
TABS,ioos:station:wmo:42048:1,2016-08-02T03:30:00Z,27.9396,-96.8429,2.0,342.6462264,4.023133107,-99999.0,'11133222,11111222,99999999' 
TABS,ioos:station:wmo:42048:1,2016-08-02T04:00:00Z,27.9396,-96.8429,2.0,24.40782205,2.61357992,-99999.0,'11133222,11111222,99999999' 
TABS,ioos:station:wmo:42048:1,2016-08-02T04:30:00Z,27.9396,-96.8429,2.0,356.7297302,2.804567703,-99999.0,'11133222,11111222,99999999' 
TABS,ioos:station:wmo:42048:1,2016-08-02T05:00:00Z,27.9396,-96.8429,2.0,343.2063409,2.318900602,-99999.0,'11133222,11111222,99999999' 
TABS,ioos:station:wmo:42048:1,2016-08-02T05:30:00Z,27.9396,-96.8429,2.0,1.041834699,2.750454508,-99999.0,'11133222,11111222,99999999' 
TABS,ioos:station:wmo:42048:1,2016-08-02T06:00:00Z,27.9396,-96.8429,2.0,17.47494385,1.132254388,-99999.0,'11133222,11111222,99999999' 
TABS,ioos:station:wmo:42048:1,2016-08-02T06:30:00Z,27.9396,-96.8429,2.0,350.0638438,1.390863041,-99999.0,'11133222,11111222,99999999' 
TABS,ioos:station:wmo:42048:1,2016-08-02T07:00:00Z,27.9396,-96.8429,2.0,14.7969381,0.548178803,-99999.0,'11133222,11111222,99999999' 
TABS,ioos:station:wmo:42048:1,2016-08-02T07:30:00Z,27.9396,-96.8429,2.0,50.73346658,1.769547965,-99999.0,'11133222,11111222,99999999' 
TABS,ioos:station:wmo:42048:1,2016-08-02T08:00:00Z,27.9396,-96.8429,2.0,117.3681464,0.95713113,-99999.0,'11133222,11111222,99999999' 
TABS,ioos:station:wmo:42048:1,2016-08-02T08:30:00Z,27.9396,-96.8429,2.0,165.570071,1.765700994,-99999.0,'11133222,11111222,99999999' 
TABS,ioos:station:wmo:42048:1,2016-08-02T09:00:00Z,27.9396,-96.8429,2.0,294.7346656,0.979897954,-99999.0,'11133222,11111222,99999999' 
TABS,ioos:station:wmo:42048:1,2016-08-02T09:30:00Z,27.9396,-96.8429,2.0,170.256171,1.00448992,-99999.0,'11133222,11111222,99999999' 
TABS,ioos:station:wmo:42048:1,2016-08-02T10:00:00Z,27.9396,-96.8429,2.0,181.0773235,3.190564213,-99999.0,'11133222,11111222,99999999' 
TABS,ioos:station:wmo:42048:1,2016-08-02T10:30:00Z,27.9396,-96.8429,2.0,179.6617661,3.390058997,-99999.0,'11133222,11111222,99999999' 
TABS,ioos:station:wmo:42048:1,2016-08-02T11:00:00Z,27.9396,-96.8429,2.0,180.1946719,2.940017007,-99999.0,'11133222,11111222,99999999' 
TABS,ioos:station:wmo:42048:1,2016-08-02T11:30:00Z,27.9396,-96.8429,2.0,168.3104477,2.369134863,-99999.0,'11133222,11111222,99999999' 
TABS,ioos:station:wmo:42048:1,2016-08-02T12:00:00Z,27.9396,-96.8429,2.0,181.3801404,2.490722787,-99999.0,'11133222,11111222,99999999' 
TABS,ioos:station:wmo:42048:1,2016-08-02T12:30:00Z,27.9396,-96.8429,2.0,182.188367,4.713438236,-99999.0,'11133222,11111222,99999999' 
TABS,ioos:station:wmo:42048:1,2016-08-02T13:00:00Z,27.9396,-96.8429,2.0,181.6363628,4.201713936,-99999.0,'11133222,11111222,99999999' 
TABS,ioos:station:wmo:42048:1,2016-08-02T13:30:00Z,27.9396,-96.8429,2.0,181.7936976,4.472191856,-99999.0,'11133222,11111222,99999999' 
TABS,ioos:station:wmo:42048:1,2016-08-02T14:00:00Z,27.9396,-96.8429,2.0,177.9851955,5.973692326,-99999.0,'11133222,11111222,99999999' 
TABS,ioos:station:wmo:42048:1,2016-08-02T14:30:00Z,27.9396,-96.8429,2.0,192.0136494,4.948383574,-99999.0,'11133222,11111222,99999999' 
TABS,ioos:station:wmo:42048:1,2016-08-02T15:00:00Z,27.9396,-96.8429,2.0,191.5919378,3.583085263,-99999.0,'11133222,11111222,99999999' 
TABS,ioos:station:wmo:42048:1,2016-08-02T15:30:00Z,27.9396,-96.8429,2.0,191.8547412,3.504753914,-99999.0,'11133222,11111222,99999999' 
TABS,ioos:station:wmo:42048:1,2016-08-02T16:00:00Z,27.9396,-96.8429,2.0,184.6438606,3.581759344,-99999.0,'11133222,11111222,99999999' 
TABS,ioos:station:wmo:42048:1,2016-08-02T16:30:00Z,27.9396,-96.8429,2.0,195.722987,3.542555575,-99999.0,'11133222,11111222,99999999' 
TABS,ioos:station:wmo:42048:1,2016-08-02T17:00:00Z,27.9396,-96.8429,2.0,215.6057153,3.898948576,-99999.0,'11133222,11111222,99999999' 
TABS,ioos:station:wmo:42048:1,2016-08-02T17:30:00Z,27.9396,-96.8429,2.0,213.8179562,3.719274123,-99999.0,'11133222,11111222,99999999' 
TABS,ioos:station:wmo:42048:1,2016-08-02T18:00:00Z,27.9396,-96.8429,2.0,206.8435873,1.83806964,-99999.0,'11133222,11111222,99999999' 
TABS,ioos:station:wmo:42048:1,2016-08-02T18:30:00Z,27.9396,-96.8429,2.0,225.6210878,3.259953987,-99999.0,'11133222,11111222,99999999' 
TABS,ioos:station:wmo:42048:1,2016-08-02T19:00:00Z,27.9396,-96.8429,2.0,224.5461662,2.680018657,-99999.0,'11133222,11111222,99999999' 
TABS,ioos:station:wmo:42048:1,2016-08-02T19:30:00Z,27.9396,-96.8429,2.0,237.4620715,3.309456149,-99999.0,'11133222,11111222,99999999' 
TABS,ioos:station:wmo:42048:1,2016-08-02T20:00:00Z,27.9396,-96.8429,2.0,279.9928121,4.264692251,-99999.0,'11133222,11111222,99999999' 
TABS,ioos:station:wmo:42048:1,2016-08-02T20:30:00Z,27.9396,-96.8429,2.0,248.2561828,3.671198714,-99999.0,'11133222,11111222,99999999' 
TABS,ioos:station:wmo:42048:1,2016-08-02T21:00:00Z,27.9396,-96.8429,2.0,265.2534461,5.438648729,-99999.0,'11133222,11111222,99999999' 
TABS,ioos:station:wmo:42048:1,2016-08-02T21:30:00Z,27.9396,-96.8429,2.0,254.5813191,4.927331935,-99999.0,'11133222,11111222,99999999' 
TABS,ioos:station:wmo:42048:1,2016-08-02T22:00:00Z,27.9396,-96.8429,2.0,274.8363861,7.235758426,-99999.0,'11133222,11111222,99999999' 
TABS,ioos:station:wmo:42048:1,2016-08-02T22:30:00Z,27.9396,-96.8429,2.0,286.4691387,5.714437855,-99999.0,'11133222,11111222,99999999' 
TABS,ioos:station:wmo:42048:1,2016-08-02T23:00:00Z,27.9396,-96.8429,2.0,292.5768469,5.079232225,-99999.0,'11133222,11111222,99999999' 
TABS,ioos:station:wmo:42048:1,2016-08-02T23:30:00Z,27.9396,-96.8429,2.0,281.3984469,6.375743094,-99999.0,'11133222,11111222,99999999' 
TABS,ioos:station:wmo:42048:1,2016-08-03T00:00:00Z,27.9396,-96.8429,2.0,285.5090228,5.946511582,-99999.0,'11133222,11111222,99999999' 
TABS,ioos:station:wmo:42048:1,2016-08-03T00:30:00Z,27.9396,-96.8429,2.0,279.0325412,7.006882331,-99999.0,'11133222,11111222,99999999' 
TABS,ioos:station:wmo:42048:1,2016-08-03T01:00:00Z,27.9396,-96.8429,2.0,274.0029222,6.876772499,-99999.0,'11133222,11111222,99999999' 
TABS,ioos:station:wmo:42048:1,2016-08-03T01:30:00Z,27.9396,-96.8429,2.0,270.0874963,6.580007599,-99999.0,'11133222,11111222,99999999' 
TABS,ioos:station:wmo:42048:1,2016-08-03T02:00:00Z,27.9396,-96.8429,2.0,252.202554,6.249047927,-99999.0,'11133222,11111222,99999999' 
TABS,ioos:station:wmo:42048:1,2016-08-03T02:30:00Z,27.9396,-96.8429,2.0,259.4809181,3.834436073,-99999.0,'11133222,11111222,99999999' 
TABS,ioos:station:wmo:42048:1,2016-08-03T03:00:00Z,27.9396,-96.8429,2.0,233.8467794,6.712525605,-99999.0,'11133222,11111222,99999999' 
TABS,ioos:station:wmo:42048:1,2016-08-03T03:30:00Z,27.9396,-96.8429,2.0,224.1822922,5.452348118,-99999.0,'11133222,11111222,99999999' 
TABS,ioos:station:wmo:42048:1,2016-08-03T04:00:00Z,27.9396,-96.8429,2.0,236.0231145,6.101778429,-99999.0,'11133222,11111222,99999999' 
TABS,ioos:station:wmo:42048:1,2016-08-03T04:30:00Z,27.9396,-96.8429,2.0,214.7798994,5.539684107,-99999.0,'11133222,11111222,99999999' 
TABS,ioos:station:wmo:42048:1,2016-08-03T05:00:00Z,27.9396,-96.8429,2.0,225.5468294,5.183329046,-99999.0,'11133222,11111222,99999999' 
TABS,ioos:station:wmo:42048:1,2016-08-03T05:30:00Z,27.9396,-96.8429,2.0,212.6484695,9.156838974,-99999.0,'11133222,11111222,99999999' 
TABS,ioos:station:wmo:42048:1,2016-08-03T06:00:00Z,27.9396,-96.8429,2.0,219.8234422,8.072725686,-99999.0,'11133222,11111222,99999999' 
TABS,ioos:station:wmo:42048:1,2016-08-03T06:30:00Z,27.9396,-96.8429,2.0,226.0614482,8.776702114,-99999.0,'11133222,11111222,99999999' 
TABS,ioos:station:wmo:42048:1,2016-08-03T07:00:00Z,27.9396,-96.8429,2.0,219.7869652,8.016389462,-99999.0,'11133222,11111222,99999999' 
TABS,ioos:station:wmo:42048:1,2016-08-03T07:30:00Z,27.9396,-96.8429,2.0,210.9836269,9.751410154,-99999.0,'11133222,11111222,99999999' 
TABS,ioos:station:wmo:42048:1,2016-08-03T08:00:00Z,27.9396,-96.8429,2.0,216.3145746,9.084426234,-99999.0,'11133222,11111222,99999999' 
TABS,ioos:station:wmo:42048:1,2016-08-03T08:30:00Z,27.9396,-96.8429,2.0,204.3762012,8.431654642,-99999.0,'11133222,11111222,99999999' 
TABS,ioos:station:wmo:42048:1,2016-08-03T09:00:00Z,27.9396,-96.8429,2.0,200.452103,9.701556576,-99999.0,'11133222,11111222,99999999' 
TABS,ioos:station:wmo:42048:1,2016-08-03T09:30:00Z,27.9396,-96.8429,2.0,202.3660827,9.040088495,-99999.0,'11133222,11111222,99999999' 
TABS,ioos:station:wmo:42048:1,2016-08-03T10:00:00Z,27.9396,-96.8429,2.0,199.9780016,10.09765319,-99999.0,'11111222,11111222,99999999' 
TABS,ioos:station:wmo:42048:1,2016-08-03T10:30:00Z,27.9396,-96.8429,2.0,206.4936334,10.8046888,-99999.0,'11111222,11111222,99999999' 
TABS,ioos:station:wmo:42048:1,2016-08-03T11:00:00Z,27.9396,-96.8429,2.0,201.8580077,11.22714567,-99999.0,'11111222,11111222,99999999' 
TABS,ioos:station:wmo:42048:1,2016-08-03T11:30:00Z,27.9396,-96.8429,2.0,197.5885135,10.9205357,-99999.0,'11111222,11111222,99999999' 
TABS,ioos:station:wmo:42048:1,2016-08-03T12:00:00Z,27.9396,-96.8429,2.0,207.8190695,11.84952742,-99999.0,'11111222,11111222,99999999' 
TABS,ioos:station:wmo:42048:1,2016-08-03T12:30:00Z,27.9396,-96.8429,2.0,202.494693,10.58540977,-99999.0,'11111222,11111222,99999999' 
TABS,ioos:station:wmo:42048:1,2016-08-03T13:00:00Z,27.9396,-96.8429,2.0,202.467734,9.576956719,-99999.0,'11133222,11111222,99999999' 
TABS,ioos:station:wmo:42048:1,2016-08-03T13:30:00Z,27.9396,-96.8429,2.0,207.7360877,9.626047995,-99999.0,'11133222,11111222,99999999' 
TABS,ioos:station:wmo:42048:1,2016-08-03T14:00:00Z,27.9396,-96.8429,2.0,192.2929339,10.28584464,-99999.0,'11111222,11111222,99999999' 
TABS,ioos:station:wmo:42048:1,2016-08-03T14:30:00Z,27.9396,-96.8429,2.0,208.7325773,9.34003212,-99999.0,'11133222,11111222,99999999' 
TABS,ioos:station:wmo:42048:1,2016-08-03T15:00:00Z,27.9396,-96.8429,2.0,202.4614684,10.31234697,-99999.0,'11111222,11111222,99999999' 
TABS,ioos:station:wmo:42048:1,2016-08-03T15:30:00Z,27.9396,-96.8429,2.0,200.5017936,7.452013151,-99999.0,'11133222,11111222,99999999' 
TABS,ioos:station:wmo:42048:1,2016-08-03T16:00:00Z,27.9396,-96.8429,2.0,201.0834948,7.116403586,-99999.0,'11133222,11111222,99999999' 
TABS,ioos:station:wmo:42048:1,2016-08-03T16:30:00Z,27.9396,-96.8429,2.0,198.4083282,6.871630083,-99999.0,'11133222,11111222,99999999' 
TABS,ioos:station:wmo:42048:1,2016-08-03T17:00:00Z,27.9396,-96.8429,2.0,208.0767301,7.457647082,-99999.0,'11133222,11111222,99999999' 
TABS,ioos:station:wmo:42048:1,2016-08-03T17:30:00Z,27.9396,-96.8429,2.0,212.2203533,6.489352818,-99999.0,'11133222,11111222,99999999' 
TABS,ioos:station:wmo:42048:1,2016-08-03T18:00:00Z,27.9396,-96.8429,2.0,201.3015658,8.092910478,-99999.0,'11133222,11111222,99999999' 
TABS,ioos:station:wmo:42048:1,2016-08-03T18:30:00Z,27.9396,-96.8429,2.0,211.0550815,9.653667697,-99999.0,'11133222,11111222,99999999' 
TABS,ioos:station:wmo:42048:1,2016-08-03T19:00:00Z,27.9396,-96.8429,2.0,213.7797525,8.830838012,-99999.0,'11133222,11111222,99999999' 
TABS,ioos:station:wmo:42048:1,2016-08-03T19:30:00Z,27.9396,-96.8429,2.0,217.3166768,9.996304317,-99999.0,'11133222,11111222,99999999' 
TABS,ioos:station:wmo:42048:1,2016-08-03T20:00:00Z,27.9396,-96.8429,2.0,224.3166091,9.490047418,-99999.0,'11133222,11111222,99999999' 
TABS,ioos:station:wmo:42048:1,2016-08-03T20:30:00Z,27.9396,-96.8429,2.0,215.7660525,11.94221504,-99999.0,'11111222,11111222,99999999' 
TABS,ioos:station:wmo:42048:1,2016-08-03T21:00:00Z,27.9396,-96.8429,2.0,216.8886551,12.02800067,-99999.0,'11111222,11111222,99999999' 
TABS,ioos:station:wmo:42048:1,2016-08-03T21:30:00Z,27.9396,-96.8429,2.0,237.2704627,11.41178777,-99999.0,'11111222,11111222,99999999' 
TABS,ioos:station:wmo:42048:1,2016-08-03T22:00:00Z,27.9396,-96.8429,2.0,240.9051017,11.14647926,-99999.0,'11111222,11111222,99999999' 
TABS,ioos:station:wmo:42048:1,2016-08-03T22:30:00Z,27.9396,-96.8429,2.0,260.5278847,10.02669437,-99999.0,'11111222,11111222,99999999' 
TABS,ioos:station:wmo:42048:1,2016-08-03T23:00:00Z,27.9396,-96.8429,2.0,251.9227665,10.11948615,-99999.0,'11111222,11111222,99999999' 
TABS,ioos:station:wmo:42048:1,2016-08-03T23:30:00Z,27.9396,-96.8429,2.0,247.2615176,11.92694848,-99999.0,'11111222,11111222,99999999' 
TABS,ioos:station:wmo:42048:1,2016-08-04T00:00:00Z,27.9396,-96.8429,2.0,245.3975837,11.09740961,-99999.0,'11111222,11111222,99999999' 
TABS,ioos:station:wmo:42048:1,2016-08-04T00:30:00Z,27.9396,-96.8429,2.0,252.0880473,11.77048852,-99999.0,'11111222,11111222,99999999' 
TABS,ioos:station:wmo:42048:1,2016-08-04T01:00:00Z,27.9396,-96.8429,2.0,236.855866,12.21782714,-99999.0,'11111222,11111222,99999999' 
TABS,ioos:station:wmo:42048:1,2016-08-04T01:30:00Z,27.9396,-96.8429,2.0,236.3310775,14.79108177,-99999.0,'11111222,11111222,99999999' 
TABS,ioos:station:wmo:42048:1,2016-08-04T16:30:00Z,27.9396,-96.8429,2.0,222.6411393,14.77690766,-99999.0,'11111222,11111222,99999999' 
TABS,ioos:station:wmo:42048:1,2016-08-04T17:00:00Z,27.9396,-96.8429,2.0,226.1360237,14.61877218,-99999.0,'11111222,11111222,99999999' 
TABS,ioos:station:wmo:42048:1,2016-08-04T17:30:00Z,27.9396,-96.8429,2.0,223.8571876,14.8946299,-99999.0,'11111222,11111222,99999999' 
TABS,ioos:station:wmo:42048:1,2016-08-04T18:00:00Z,27.9396,-96.8429,2.0,231.4922253,13.50751643,-99999.0,'11111222,11111222,99999999' 
TABS,ioos:station:wmo:42048:1,2016-08-04T18:30:00Z,27.9396,-96.8429,2.0,245.1370068,11.89218651,-99999.0,'11111222,11111222,99999999' 
TABS,ioos:station:wmo:42048:1,2016-08-04T19:00:00Z,27.9396,-96.8429,2.0,243.4117449,11.21611787,-99999.0,'11111222,11111222,99999999' 
TABS,ioos:station:wmo:42048:1,2016-08-04T19:30:00Z,27.9396,-96.8429,2.0,246.3264284,13.47381535,-99999.0,'11111222,11111222,99999999' 
TABS,ioos:station:wmo:42048:1,2016-08-04T20:00:00Z,27.9396,-96.8429,2.0,252.2832143,12.35599045,-99999.0,'11111222,11111222,99999999' 
TABS,ioos:station:wmo:42048:1,2016-08-04T20:30:00Z,27.9396,-96.8429,2.0,249.0503639,13.9844056,-99999.0,'11111222,11111222,99999999' 
TABS,ioos:station:wmo:42048:1,2016-08-04T21:00:00Z,27.9396,-96.8429,2.0,271.1013945,15.09278636,-99999.0,'11111222,11111222,99999999' 
TABS,ioos:station:wmo:42048:1,2016-08-04T21:30:00Z,27.9396,-96.8429,2.0,278.616049,12.68312264,-99999.0,'11111222,11111222,99999999' 
TABS,ioos:station:wmo:42048:1,2016-08-04T22:00:00Z,27.9396,-96.8429,2.0,270.5037372,13.66052708,-99999.0,'11111222,11111222,99999999' 
TABS,ioos:station:wmo:42048:1,2016-08-04T22:30:00Z,27.9396,-96.8429,2.0,264.3882083,12.06782913,-99999.0,'11111222,11111222,99999999' 
TABS,ioos:station:wmo:42048:1,2016-08-04T23:00:00Z,27.9396,-96.8429,2.0,261.5451967,12.24304292,-99999.0,'11111222,11111222,99999999' 
TABS,ioos:station:wmo:42048:1,2016-08-04T23:30:00Z,27.9396,-96.8429,2.0,260.3541707,10.80271262,-99999.0,'11111222,11111222,99999999' 
TABS,ioos:station:wmo:42048:1,2016-08-05T00:00:00Z,27.9396,-96.8429,2.0,265.9719601,12.67129433,-99999.0,'11111222,11111222,99999999' 
TABS,ioos:station:wmo:42048:1,2016-08-05T00:30:00Z,27.9396,-96.8429,2.0,258.2736607,12.69493206,-99999.0,'11111222,11111222,99999999' 
TABS,ioos:station:wmo:42048:1,2016-08-05T01:00:00Z,27.9396,-96.8429,2.0,266.8250897,11.91828847,-99999.0,'11111222,11111222,99999999' 
TABS,ioos:station:wmo:42048:1,2016-08-05T01:30:00Z,27.9396,-96.8429,2.0,254.7649369,12.29196892,-99999.0,'11111222,11111222,99999999' 
TABS,ioos:station:wmo:42048:1,2016-08-05T02:00:00Z,27.9396,-96.8429,2.0,248.8238892,10.71340282,-99999.0,'11111222,11111222,99999999' 
TABS,ioos:station:wmo:42048:1,2016-08-05T02:30:00Z,27.9396,-96.8429,2.0,246.9028112,11.82810213,-99999.0,'11111222,11111222,99999999' 
TABS,ioos:station:wmo:42048:1,2016-08-05T03:00:00Z,27.9396,-96.8429,2.0,240.6582511,11.44868988,-99999.0,'11111222,11111222,99999999' 
TABS,ioos:station:wmo:42048:1,2016-08-05T03:30:00Z,27.9396,-96.8429,2.0,237.4213811,12.72167049,-99999.0,'11111222,11111222,99999999' 
TABS,ioos:station:wmo:42048:1,2016-08-05T04:00:00Z,27.9396,-96.8429,2.0,239.684847,12.71915092,-99999.0,'11111222,11111222,99999999' 
TABS,ioos:station:wmo:42048:1,2016-08-05T04:30:00Z,27.9396,-96.8429,2.0,235.225133,11.86993682,-99999.0,'11111222,11111222,99999999' 
TABS,ioos:station:wmo:42048:1,2016-08-05T05:00:00Z,27.9396,-96.8429,2.0,242.4335583,13.31110814,-99999.0,'11111222,11111222,99999999' 
TABS,ioos:station:wmo:42048:1,2016-08-05T05:30:00Z,27.9396,-96.8429,2.0,243.5351969,10.18754141,-99999.0,'11111222,11111222,99999999' 
TABS,ioos:station:wmo:42048:1,2016-08-05T06:00:00Z,27.9396,-96.8429,2.0,236.9933384,12.31799497,-99999.0,'11111222,11111222,99999999' 
TABS,ioos:station:wmo:42048:1,2016-08-05T06:30:00Z,27.9396,-96.8429,2.0,246.0964807,10.78501275,-99999.0,'11111222,11111222,99999999' 